Etusivu
METAR-TAF:

METAR-TAF

Lentoasemat :

Richard B. Helgeson Airport

Two Harbors, Minnesota, Yhdysvallat

Leveyspiiri: 47-03N, Pituuspiiri: 091-45W, korkeus merenpinnasta: 328 m

Tämänhetkinen sää

Tämä raportti tehtiin 28 minuuttia sitten, kello 08.02 UTC
Tuuli 5 kn pohjoisesta/koillisesta
Lämpötila -4°C
Kosteus 54%
Ilmanpaine 1021 hPa
Näkyvyys: 16.1 km
selkeää

METAR: KTWM 250802Z AUTO 02005KT 10SM CLR M04/M12 A3015 RMK AO2

Aika: 02:30 (08:30 UTC)


TAF: puuttuu

Säähavainnot ja -ennusteet yli 4000 lentoasemalta (METAR- ja TAF-raportit).

Käytössä olevat sääasemat on merkitty karttaan keltaisilla ja punaisilla pisteillä.

Aseta hiiri pisteen päälle nähdäksesi sääaseman nimen.

Klikkaa sitten nähdäksesi säähavainnot ja -ennusteet.

Kartan vaihtaminen: klikkaa mustalla rastilla varustettuja vihreitä pisteitä, niin voit zoomata sisään; viivalla varustettua vihreää pistettä, niin voit zoomata ulos tai vihreitä nuolia, niin pääset viereisille kartoille.


METAR-TAF: